Time,TemperatureF,DewpointF,PressureIn,WindDirection,WindDirectionDegrees,WindSpeedMPH,WindSpeedGustMPH,Humidity,HourlyPrecipIn,Conditions,Clouds,dailyrainin,SoftwareType,DateUTC
2013-02-14 00:02:00,32.0,25.0,29.75,NW,325,5.0,16.0,75,0.00,,,0.16,meteohub,2013-02-14 05:02:00,
2013-02-14 00:07:00,32.0,25.0,29.75,WNW,302,8.0,8.0,75,0.00,,,0.00,meteohub,2013-02-14 05:07:00,
2013-02-14 00:12:00,32.0,25.0,29.78,WNW,302,0.0,8.0,75,0.00,,,0.00,meteohub,2013-02-14 05:12:00,
2013-02-14 00:17:00,31.8,24.8,29.78,WSW,258,7.0,13.0,75,0.00,,,0.00,meteohub,2013-02-14 05:17:00,
2013-02-14 00:22:00,31.8,25.2,29.78,WSW,258,7.0,13.0,76,0.00,,,0.00,meteohub,2013-02-14 05:22:00,
2013-02-14 00:27:00,31.8,25.2,29.75,SSW,212,7.0,14.0,76,0.00,,,0.00,meteohub,2013-02-14 05:27:00,
2013-02-14 00:32:00,31.8,25.2,29.75,WNW,302,5.0,14.0,76,0.00,,,0.00,meteohub,2013-02-14 05:32:00,
2013-02-14 00:37:00,31.8,25.2,29.75,WSW,258,11.0,14.0,76,0.00,,,0.00,meteohub,2013-02-14 05:37:00,
2013-02-14 00:42:00,31.6,25.3,29.75,NNE,32,7.0,13.0,77,0.00,,,0.00,meteohub,2013-02-14 05:42:00,
2013-02-14 00:47:00,31.6,25.3,29.75,West,280,8.0,15.0,77,0.00,,,0.00,meteohub,2013-02-14 05:47:00,
2013-02-14 00:52:00,31.6,25.3,29.75,South,190,8.0,15.0,77,0.00,,,0.00,meteohub,2013-02-14 05:52:00,
2013-02-14 00:57:00,31.6,25.5,29.75,SSW,212,4.0,15.0,78,0.00,,,0.00,meteohub,2013-02-14 05:57:00,
2013-02-14 01:02:00,31.6,25.3,29.75,WSW,258,3.0,13.0,77,0.00,,,0.00,meteohub,2013-02-14 06:02:00,
2013-02-14 01:07:00,31.6,25.3,29.75,WNW,302,5.0,15.0,77,0.00,,,0.00,meteohub,2013-02-14 06:07:00,
2013-02-14 01:12:00,31.6,25.0,29.72,WSW,258,8.0,15.0,76,0.00,,,0.00,meteohub,2013-02-14 06:12:00,
2013-02-14 01:17:00,31.6,24.6,29.72,NE,55,12.0,16.0,75,0.00,,,0.00,meteohub,2013-02-14 06:17:00,
2013-02-14 01:22:00,31.6,24.3,29.72,WSW,258,5.0,16.0,74,0.00,,,0.00,meteohub,2013-02-14 06:22:00,
2013-02-14 01:27:00,31.6,24.3,29.75,ENE,78,0.0,16.0,74,0.00,,,0.00,meteohub,2013-02-14 06:27:00,
2013-02-14 01:32:00,31.6,24.1,29.75,SW,235,6.0,16.0,73,0.00,,,0.00,meteohub,2013-02-14 06:32:00,
2013-02-14 01:37:00,31.5,23.9,29.75,SE,145,8.0,15.0,73,0.00,,,0.00,meteohub,2013-02-14 06:37:00,
2013-02-14 01:42:00,31.6,23.4,29.78,SSW,212,5.0,11.0,71,0.00,,,0.00,meteohub,2013-02-14 06:42:00,
2013-02-14 01:47:00,31.5,23.2,29.78,North,10,18.0,18.0,71,0.00,,,0.00,meteohub,2013-02-14 06:47:00,
2013-02-14 01:52:00,31.5,22.8,29.78,ESE,122,2.0,18.0,70,0.00,,,0.00,meteohub,2013-02-14 06:52:00,
2013-02-14 01:57:00,31.5,22.8,29.78,SE,145,5.0,18.0,70,0.00,,,0.00,meteohub,2013-02-14 06:57:00,
2013-02-14 02:02:00,31.5,22.5,29.78,NNW,348,8.0,18.0,69,0.00,,,0.00,meteohub,2013-02-14 07:02:00,
2013-02-14 02:07:00,31.5,21.7,29.78,NNW,348,6.0,13.0,67,0.00,,,0.00,meteohub,2013-02-14 07:07:00,
2013-02-14 02:12:00,31.5,21.7,29.78,West,280,3.0,13.0,67,0.00,,,0.00,meteohub,2013-02-14 07:12:00,
2013-02-14 02:17:00,31.5,21.4,29.78,West,280,8.0,11.0,66,0.00,,,0.00,meteohub,2013-02-14 07:17:00,
2013-02-14 02:22:00,31.5,20.7,29.78,WNW,302,9.0,11.0,64,0.00,,,0.00,meteohub,2013-02-14 07:22:00,
2013-02-14 02:27:00,31.3,20.1,29.78,WNW,302,6.0,11.0,63,0.00,,,0.00,meteohub,2013-02-14 07:27:00,
2013-02-14 02:32:00,31.1,19.9,29.78,West,280,6.0,12.0,63,0.00,,,0.00,meteohub,2013-02-14 07:32:00,
2013-02-14 02:37:00,31.1,19.2,29.78,NNW,348,7.0,14.0,61,0.00,,,0.00,meteohub,2013-02-14 07:37:00,
2013-02-14 02:42:00,30.9,18.7,29.81,ESE,122,3.0,14.0,60,0.00,,,0.00,meteohub,2013-02-14 07:42:00,
2013-02-14 02:47:00,30.7,18.9,29.81,SSW,212,4.0,16.0,61,0.00,,,0.00,meteohub,2013-02-14 07:47:00,
2013-02-14 02:52:00,30.6,18.0,29.81,WNW,302,7.0,17.0,59,0.00,,,0.00,meteohub,2013-02-14 07:52:00,
2013-02-14 02:57:00,30.4,17.1,29.81,SSE,168,7.0,17.0,57,0.00,,,0.00,meteohub,2013-02-14 07:57:00,
2013-02-14 03:02:00,30.2,16.3,29.81,WNW,302,6.0,20.0,56,0.00,,,0.00,meteohub,2013-02-14 08:02:00,
2013-02-14 03:07:00,30.0,16.2,29.81,WNW,302,12.0,24.0,56,0.00,,,0.00,meteohub,2013-02-14 08:07:00,
2013-02-14 03:12:00,29.8,15.6,29.81,WNW,302,10.0,24.0,55,0.00,,,0.00,meteohub,2013-02-14 08:12:00,
2013-02-14 03:17:00,29.7,15.4,29.81,NNW,348,9.0,17.0,55,0.00,,,0.00,meteohub,2013-02-14 08:17:00,
2013-02-14 03:22:00,29.5,15.8,29.81,WNW,302,13.0,17.0,56,0.00,,,0.00,meteohub,2013-02-14 08:22:00,
2013-02-14 03:27:00,29.5,15.3,29.81,NNW,348,10.0,17.0,55,0.00,,,0.00,meteohub,2013-02-14 08:27:00,
2013-02-14 03:32:00,29.5,15.8,29.81,WNW,302,8.0,17.0,56,0.00,,,0.00,meteohub,2013-02-14 08:32:00,
2013-02-14 03:37:00,29.5,15.8,29.81,WSW,258,6.0,17.0,56,0.00,,,0.00,meteohub,2013-02-14 08:37:00,
2013-02-14 03:42:00,29.5,15.8,29.81,WNW,302,15.0,16.0,56,0.00,,,0.00,meteohub,2013-02-14 08:42:00,
2013-02-14 03:47:00,29.5,15.8,29.81,NNW,348,6.0,21.0,56,0.00,,,0.00,meteohub,2013-02-14 08:47:00,
2013-02-14 03:52:00,29.3,16.0,29.81,SSW,212,5.0,21.0,57,0.00,,,0.00,meteohub,2013-02-14 08:52:00,
2013-02-14 03:57:00,29.1,15.8,29.81,WNW,302,0.0,16.0,57,0.00,,,0.00,meteohub,2013-02-14 08:57:00,
2013-02-14 04:02:00,28.9,16.0,29.81,SSE,168,7.0,12.0,58,0.00,,,0.00,meteohub,2013-02-14 09:02:00,
2013-02-14 04:07:00,29.1,16.5,29.81,WNW,302,5.0,12.0,59,0.00,,,0.00,meteohub,2013-02-14 09:07:00,
2013-02-14 04:12:00,29.1,16.5,29.81,SW,235,6.0,11.0,59,0.00,,,0.00,meteohub,2013-02-14 09:12:00,
2013-02-14 04:17:00,29.1,16.5,29.81,North,10,7.0,12.0,59,0.00,,,0.00,meteohub,2013-02-14 09:17:00,
2013-02-14 04:22:00,29.1,16.2,29.81,NW,325,3.0,12.0,58,0.00,,,0.00,meteohub,2013-02-14 09:22:00,
2013-02-14 04:27:00,28.8,15.8,29.84,NNW,348,5.0,13.0,58,0.00,,,0.00,meteohub,2013-02-14 09:27:00,
2013-02-14 04:32:00,28.6,15.6,29.84,SW,235,7.0,13.0,58,0.00,,,0.00,meteohub,2013-02-14 09:32:00,
2013-02-14 04:37:00,28.6,16.2,29.84,SSE,168,4.0,9.0,59,0.00,,,0.00,meteohub,2013-02-14 09:37:00,
2013-02-14 04:42:00,28.4,16.0,29.84,SSE,168,5.0,9.0,59,0.00,,,0.00,meteohub,2013-02-14 09:42:00,
2013-02-14 04:47:00,28.4,16.3,29.84,West,280,11.0,11.0,60,0.00,,,0.00,meteohub,2013-02-14 09:47:00,
2013-02-14 04:52:00,28.2,15.8,29.84,SE,145,7.0,11.0,59,0.00,,,0.00,meteohub,2013-02-14 09:52:00,
2013-02-14 04:57:00,28.4,16.0,29.84,South,190,4.0,12.0,59,0.00,,,0.00,meteohub,2013-02-14 09:57:00,
2013-02-14 05:02:00,28.2,15.4,29.84,North,10,3.0,12.0,58,0.00,,,0.00,meteohub,2013-02-14 10:02:00,
2013-02-14 05:07:00,28.0,15.3,29.84,NW,325,6.0,12.0,58,0.00,,,0.00,meteohub,2013-02-14 10:07:00,
2013-02-14 05:12:00,28.0,15.3,29.84,SSW,212,4.0,11.0,58,0.00,,,0.00,meteohub,2013-02-14 10:12:00,
2013-02-14 05:17:00,27.9,15.1,29.84,SSW,212,10.0,11.0,58,0.00,,,0.00,meteohub,2013-02-14 10:17:00,
2013-02-14 05:22:00,28.0,14.7,29.84,West,280,7.0,12.0,57,0.00,,,0.00,meteohub,2013-02-14 10:22:00,
2013-02-14 05:27:00,27.9,14.5,29.84,ESE,122,3.0,15.0,57,0.00,,,0.00,meteohub,2013-02-14 10:27:00,
2013-02-14 05:32:00,27.9,14.5,29.84,NNE,32,2.0,15.0,57,0.00,,,0.00,meteohub,2013-02-14 10:32:00,
2013-02-14 05:37:00,27.3,14.5,29.84,South,190,5.0,13.0,58,0.00,,,0.00,meteohub,2013-02-14 10:37:00,
2013-02-14 05:42:00,27.3,14.5,29.81,WSW,258,5.0,9.0,58,0.00,,,0.00,meteohub,2013-02-14 10:42:00,
2013-02-14 05:47:00,27.3,14.5,29.81,WSW,258,2.0,13.0,58,0.00,,,0.00,meteohub,2013-02-14 10:47:00,
2013-02-14 05:52:00,27.3,14.5,29.81,South,190,3.0,13.0,58,0.00,,,0.00,meteohub,2013-02-14 10:52:00,
2013-02-14 05:57:00,27.1,14.4,29.84,WNW,302,4.0,13.0,58,0.00,,,0.00,meteohub,2013-02-14 10:57:00,
2013-02-14 06:02:00,26.8,14.4,29.84,ESE,122,0.0,11.0,59,0.00,,,0.00,meteohub,2013-02-14 11:02:00,
2013-02-14 06:07:00,26.8,14.7,29.84,WNW,302,0.0,11.0,60,0.00,,,0.00,meteohub,2013-02-14 11:07:00,
2013-02-14 06:12:00,26.4,14.0,29.84,NNW,348,0.0,9.0,59,0.00,,,0.00,meteohub,2013-02-14 11:12:00,
2013-02-14 06:17:00,26.1,14.2,29.84,ESE,122,0.0,8.0,60,0.00,,,0.00,meteohub,2013-02-14 11:17:00,
2013-02-14 06:22:00,25.9,14.4,29.84,SE,145,0.0,7.0,61,0.00,,,0.00,meteohub,2013-02-14 11:22:00,
2013-02-14 06:27:00,25.9,14.4,29.84,NNE,32,2.0,4.0,61,0.00,,,0.00,meteohub,2013-02-14 11:27:00,
2013-02-14 06:32:00,26.1,14.9,29.84,SSE,168,5.0,6.0,62,0.00,,,0.00,meteohub,2013-02-14 11:32:00,
2013-02-14 06:37:00,26.1,15.3,29.84,SE,145,5.0,6.0,63,0.00,,,0.00,meteohub,2013-02-14 11:37:00,
2013-02-14 06:42:00,26.2,16.2,29.84,SSE,168,5.0,10.0,65,0.00,,,0.00,meteohub,2013-02-14 11:42:00,
2013-02-14 06:47:00,26.8,16.9,29.84,South,190,6.0,12.0,66,0.00,,,0.00,meteohub,2013-02-14 11:47:00,
2013-02-14 06:52:00,27.0,16.7,29.84,South,190,6.0,12.0,65,0.00,,,0.00,meteohub,2013-02-14 11:52:00,
2013-02-14 06:57:00,27.3,16.7,29.84,SE,145,11.0,12.0,64,0.00,,,0.00,meteohub,2013-02-14 11:57:00,
2013-02-14 07:02:00,27.5,16.5,29.84,WSW,258,2.0,11.0,63,0.00,,,0.00,meteohub,2013-02-14 12:02:00,
2013-02-14 07:07:00,27.5,16.5,29.84,SSW,212,4.0,11.0,63,0.00,,,0.00,meteohub,2013-02-14 12:07:00,
2013-02-14 07:12:00,27.7,16.3,29.87,SSW,212,7.0,11.0,62,0.00,,,0.00,meteohub,2013-02-14 12:12:00,
2013-02-14 07:17:00,27.9,16.5,29.87,WNW,302,5.0,8.0,62,0.00,,,0.00,meteohub,2013-02-14 12:17:00,
2013-02-14 07:22:00,27.9,16.5,29.87,SSE,168,0.0,8.0,62,0.00,,,0.00,meteohub,2013-02-14 12:22:00,
2013-02-14 07:27:00,27.9,16.5,29.87,SSE,168,3.0,8.0,62,0.00,,,0.00,meteohub,2013-02-14 12:27:00,
2013-02-14 07:32:00,27.9,16.5,29.87,SSE,168,3.0,6.0,62,0.00,,,0.00,meteohub,2013-02-14 12:32:00,
2013-02-14 07:37:00,27.9,16.5,29.87,SW,235,3.0,5.0,62,0.00,,,0.00,meteohub,2013-02-14 12:37:00,
2013-02-14 07:42:00,28.0,16.7,29.87,South,190,6.0,6.0,62,0.00,,,0.00,meteohub,2013-02-14 12:42:00,
2013-02-14 07:47:00,28.2,17.2,29.87,SSW,212,4.0,7.0,63,0.00,,,0.00,meteohub,2013-02-14 12:47:00,
2013-02-14 07:52:00,28.4,17.4,29.87,South,190,4.0,7.0,63,0.00,,,0.00,meteohub,2013-02-14 12:52:00,
2013-02-14 07:57:00,28.6,17.2,29.87,South,190,0.0,7.0,62,0.00,,,0.00,meteohub,2013-02-14 12:57:00,
2013-02-14 08:02:00,28.8,17.8,29.87,South,190,5.0,8.0,63,0.00,,,0.00,meteohub,2013-02-14 13:02:00,
2013-02-14 08:07:00,29.1,17.4,29.87,SW,235,5.0,8.0,61,0.00,,,0.00,meteohub,2013-02-14 13:07:00,
2013-02-14 08:12:00,29.5,17.8,29.87,ESE,122,2.0,8.0,61,0.00,,,0.00,meteohub,2013-02-14 13:12:00,
2013-02-14 08:17:00,29.7,18.3,29.87,ESE,122,0.0,8.0,62,0.00,,,0.00,meteohub,2013-02-14 13:17:00,
2013-02-14 08:22:00,29.8,18.1,29.87,SW,235,2.0,8.0,61,0.00,,,0.00,meteohub,2013-02-14 13:22:00,
2013-02-14 08:27:00,30.0,18.1,29.90,SSW,212,4.0,8.0,61,0.00,,,0.00,meteohub,2013-02-14 13:27:00,
2013-02-14 08:32:00,30.2,18.3,29.90,WNW,302,4.0,8.0,61,0.00,,,0.00,meteohub,2013-02-14 13:32:00,
2013-02-14 08:37:00,30.7,18.5,29.90,SSW,212,5.0,6.0,60,0.00,,,0.00,meteohub,2013-02-14 13:37:00,
2013-02-14 08:42:00,31.1,18.9,29.87,SSW,212,0.0,7.0,60,0.00,,,0.00,meteohub,2013-02-14 13:42:00,
2013-02-14 08:47:00,31.5,19.2,29.87,WNW,302,4.0,7.0,60,0.00,,,0.00,meteohub,2013-02-14 13:47:00,
2013-02-14 08:52:00,32.0,19.8,29.87,South,190,5.0,7.0,60,0.00,,,0.00,meteohub,2013-02-14 13:52:00,
2013-02-14 08:57:00,32.2,19.6,29.87,SE,145,5.0,6.0,59,0.00,,,0.00,meteohub,2013-02-14 13:57:00,
2013-02-14 09:02:00,32.4,18.9,29.87,South,190,6.0,6.0,57,0.00,,,0.00,meteohub,2013-02-14 14:02:00,
2013-02-14 09:07:00,32.2,18.3,29.87,West,280,4.0,7.0,56,0.00,,,0.00,meteohub,2013-02-14 14:07:00,
2013-02-14 09:12:00,32.2,18.3,29.87,South,190,6.0,11.0,56,0.00,,,0.00,meteohub,2013-02-14 14:12:00,
2013-02-14 09:17:00,32.5,18.7,29.87,ESE,122,11.0,11.0,56,0.00,,,0.00,meteohub,2013-02-14 14:17:00,
2013-02-14 09:22:00,32.5,18.1,29.87,SSE,168,0.0,11.0,55,0.00,,,0.00,meteohub,2013-02-14 14:22:00,
2013-02-14 09:27:00,32.7,18.9,29.87,SSW,212,7.0,11.0,56,0.00,,,0.00,meteohub,2013-02-14 14:27:00,
2013-02-14 09:32:00,32.9,18.5,29.87,SSW,212,3.0,11.0,55,0.00,,,0.00,meteohub,2013-02-14 14:32:00,
2013-02-14 09:37:00,33.3,19.2,29.87,SSW,212,3.0,10.0,56,0.00,,,0.00,meteohub,2013-02-14 14:37:00,
2013-02-14 09:42:00,33.6,18.9,29.87,SW,235,7.0,10.0,54,0.00,,,0.00,meteohub,2013-02-14 14:42:00,
2013-02-14 09:47:00,33.4,18.7,29.87,SSW,212,9.0,10.0,54,0.00,,,0.00,meteohub,2013-02-14 14:47:00,
2013-02-14 09:52:00,33.6,18.3,29.87,SSW,212,4.0,10.0,53,0.00,,,0.00,meteohub,2013-02-14 14:52:00,
2013-02-14 09:57:00,33.6,18.0,29.87,ESE,122,5.0,10.0,52,0.00,,,0.00,meteohub,2013-02-14 14:57:00,
2013-02-14 10:02:00,33.8,18.1,29.87,SSW,212,6.0,9.0,52,0.00,,,0.00,meteohub,2013-02-14 15:02:00,
2013-02-14 10:07:00,34.0,18.7,29.87,WNW,302,0.0,8.0,53,0.00,,,0.00,meteohub,2013-02-14 15:07:00,
2013-02-14 10:12:00,34.3,19.0,29.87,WSW,258,3.0,7.0,53,0.00,,,0.00,meteohub,2013-02-14 15:12:00,
2013-02-14 10:17:00,34.7,18.9,29.87,South,190,5.0,9.0,52,0.00,,,0.00,meteohub,2013-02-14 15:17:00,
2013-02-14 10:22:00,35.1,19.2,29.87,WSW,258,4.0,9.0,52,0.00,,,0.00,meteohub,2013-02-14 15:22:00,
2013-02-14 10:27:00,35.2,19.0,29.87,NW,325,7.0,7.0,51,0.00,,,0.00,meteohub,2013-02-14 15:27:00,
2013-02-14 10:32:00,35.1,18.3,29.87,NW,325,0.0,8.0,50,0.00,,,0.00,meteohub,2013-02-14 15:32:00,
2013-02-14 10:37:00,35.8,19.0,29.87,North,10,3.0,9.0,50,0.00,,,0.00,meteohub,2013-02-14 15:37:00,
2013-02-14 10:42:00,36.3,19.0,29.90,WSW,258,3.0,9.0,49,0.00,,,0.00,meteohub,2013-02-14 15:42:00,
2013-02-14 10:47:00,36.3,18.5,29.90,SSW,212,10.0,10.0,48,0.00,,,0.00,meteohub,2013-02-14 15:47:00,
2013-02-14 10:52:00,36.3,18.5,29.90,South,190,6.0,11.0,48,0.00,,,0.00,meteohub,2013-02-14 15:52:00,
2013-02-14 10:57:00,36.1,18.0,29.87,West,280,5.0,11.0,47,0.00,,,0.00,meteohub,2013-02-14 15:57:00,
2013-02-14 11:02:00,35.8,17.6,29.87,WNW,302,3.0,11.0,47,0.00,,,0.00,meteohub,2013-02-14 16:02:00,
2013-02-14 11:07:00,36.3,18.5,29.87,SSW,212,5.0,11.0,48,0.00,,,0.00,meteohub,2013-02-14 16:07:00,
2013-02-14 11:12:00,36.5,18.3,29.90,SSE,168,8.0,11.0,47,0.00,,,0.00,meteohub,2013-02-14 16:12:00,
2013-02-14 11:17:00,36.7,18.3,29.90,SSW,212,7.0,9.0,47,0.00,,,0.00,meteohub,2013-02-14 16:17:00,
2013-02-14 11:22:00,36.7,18.3,29.90,WSW,258,12.0,12.0,47,0.00,,,0.00,meteohub,2013-02-14 16:22:00,
2013-02-14 11:27:00,36.9,18.1,29.90,South,190,11.0,12.0,46,0.00,,,0.00,meteohub,2013-02-14 16:27:00,
2013-02-14 11:32:00,36.5,17.8,29.90,South,190,6.0,12.0,46,0.00,,,0.00,meteohub,2013-02-14 16:32:00,
2013-02-14 11:37:00,36.5,17.8,29.90,South,190,5.0,13.0,46,0.00,,,0.00,meteohub,2013-02-14 16:37:00,
2013-02-14 11:42:00,36.7,18.3,29.93,ENE,78,5.0,13.0,47,0.00,,,0.00,meteohub,2013-02-14 16:42:00,
2013-02-14 11:47:00,36.7,18.0,29.93,SSW,212,4.0,13.0,46,0.00,,,0.00,meteohub,2013-02-14 16:47:00,
2013-02-14 11:52:00,36.7,18.0,29.93,SSE,168,5.0,11.0,46,0.00,,,0.00,meteohub,2013-02-14 16:52:00,
2013-02-14 11:57:00,37.0,18.7,29.93,WSW,258,8.0,13.0,47,0.00,,,0.00,meteohub,2013-02-14 16:57:00,
2013-02-14 12:02:00,37.0,18.3,29.93,West,280,6.0,13.0,46,0.00,,,0.00,meteohub,2013-02-14 17:02:00,
2013-02-14 12:07:00,36.9,18.1,29.93,NW,325,5.0,14.0,46,0.00,,,0.00,meteohub,2013-02-14 17:07:00,
2013-02-14 12:12:00,36.7,17.4,29.93,NW,325,9.0,14.0,45,0.00,,,0.00,meteohub,2013-02-14 17:12:00,
2013-02-14 12:17:00,36.7,18.0,29.93,WNW,302,13.0,16.0,46,0.00,,,0.00,meteohub,2013-02-14 17:17:00,
2013-02-14 12:22:00,36.5,17.8,29.93,WSW,258,9.0,16.0,46,0.00,,,0.00,meteohub,2013-02-14 17:22:00,
2013-02-14 12:27:00,37.0,17.8,29.90,North,10,17.0,17.0,45,0.00,,,0.00,meteohub,2013-02-14 17:27:00,
2013-02-14 12:32:00,37.8,18.9,29.90,WSW,258,5.0,17.0,46,0.00,,,0.00,meteohub,2013-02-14 17:32:00,
2013-02-14 12:47:00,40.8,19.6,29.87,WNW,302,7.0,17.0,42,0.00,,,0.00,meteohub,2013-02-14 17:47:00,
2013-02-14 12:52:00,40.1,18.9,29.87,NNW,348,17.0,17.0,42,0.00,,,0.00,meteohub,2013-02-14 17:52:00,
2013-02-14 12:57:00,39.7,18.5,29.87,NNW,348,8.0,20.0,42,0.00,,,0.00,meteohub,2013-02-14 17:57:00,
2013-02-14 13:07:00,40.3,19.0,29.87,East,100,11.0,20.0,42,0.00,,,0.00,meteohub,2013-02-14 18:07:00,
2013-02-14 13:12:00,41.7,19.8,29.87,West,280,7.0,19.0,41,0.00,,,0.00,meteohub,2013-02-14 18:12:00,
2013-02-14 13:17:00,42.8,20.1,29.87,South,190,8.0,19.0,40,0.00,,,0.00,meteohub,2013-02-14 18:17:00,
2013-02-14 13:22:00,44.6,21.7,29.87,SSW,212,4.0,15.0,40,0.00,,,0.00,meteohub,2013-02-14 18:22:00,
2013-02-14 13:27:00,45.9,22.3,29.87,NNW,348,2.0,15.0,39,0.00,,,0.00,meteohub,2013-02-14 18:27:00,
2013-02-14 13:32:00,44.4,21.0,29.87,NNW,348,8.0,12.0,39,0.00,,,0.00,meteohub,2013-02-14 18:32:00,
2013-02-14 13:37:00,44.1,20.7,29.87,SSE,168,7.0,13.0,39,0.00,,,0.00,meteohub,2013-02-14 18:37:00,
2013-02-14 13:42:00,45.9,22.3,29.87,SW,235,2.0,13.0,39,0.00,,,0.00,meteohub,2013-02-14 18:42:00,
2013-02-14 13:47:00,45.5,21.4,29.87,SSW,212,2.0,13.0,38,0.00,,,0.00,meteohub,2013-02-14 18:47:00,
2013-02-14 13:52:00,44.4,20.5,29.87,NW,325,11.0,13.0,38,0.00,,,0.00,meteohub,2013-02-14 18:52:00,
2013-02-14 13:57:00,44.2,20.3,29.87,NNW,348,12.0,17.0,38,0.00,,,0.00,meteohub,2013-02-14 18:57:00,
2013-02-14 14:02:00,43.7,19.8,29.87,WNW,302,12.0,17.0,38,0.00,,,0.00,meteohub,2013-02-14 19:02:00,
2013-02-14 14:07:00,45.3,21.2,29.87,NW,325,3.0,17.0,38,0.00,,,0.00,meteohub,2013-02-14 19:07:00,
2013-02-14 14:12:00,44.6,20.7,29.87,WSW,258,4.0,14.0,38,0.00,,,0.00,meteohub,2013-02-14 19:12:00,
2013-02-14 14:17:00,45.3,20.7,29.87,WNW,302,5.0,13.0,37,0.00,,,0.00,meteohub,2013-02-14 19:17:00,
2013-02-14 14:22:00,45.3,20.7,29.87,ESE,122,11.0,17.0,37,0.00,,,0.00,meteohub,2013-02-14 19:22:00,
2013-02-14 14:27:00,45.7,21.6,29.87,WSW,258,5.0,17.0,38,0.00,,,0.00,meteohub,2013-02-14 19:27:00,
2013-02-14 14:32:00,45.1,20.5,29.87,NNW,348,7.0,17.0,37,0.00,,,0.00,meteohub,2013-02-14 19:32:00,
2013-02-14 14:37:00,46.9,22.1,29.87,SW,235,9.0,15.0,37,0.00,,,0.00,meteohub,2013-02-14 19:37:00,
2013-02-14 14:42:00,47.5,22.6,29.87,WSW,258,4.0,11.0,37,0.00,,,0.00,meteohub,2013-02-14 19:42:00,
2013-02-14 14:47:00,46.8,21.2,29.87,West,280,19.0,19.0,36,0.00,,,0.00,meteohub,2013-02-14 19:47:00,
2013-02-14 14:52:00,45.3,19.4,29.87,SSE,168,12.0,19.0,35,0.00,,,0.00,meteohub,2013-02-14 19:52:00,
2013-02-14 14:57:00,44.4,19.2,29.87,NNW,348,8.0,21.0,36,0.00,,,0.00,meteohub,2013-02-14 19:57:00,
2013-02-14 15:02:00,45.5,20.1,29.87,NW,325,7.0,25.0,36,0.00,,,0.00,meteohub,2013-02-14 20:02:00,
2013-02-14 15:07:00,44.1,19.6,29.87,NW,325,11.0,25.0,37,0.00,,,0.00,meteohub,2013-02-14 20:07:00,
2013-02-14 15:12:00,46.9,22.1,29.84,North,10,4.0,20.0,37,0.00,,,0.00,meteohub,2013-02-14 20:12:00,
2013-02-14 15:17:00,48.9,23.9,29.84,SSW,212,4.0,20.0,37,0.00,,,0.00,meteohub,2013-02-14 20:17:00,
2013-02-14 15:22:00,48.2,21.9,29.84,SSW,212,8.0,13.0,35,0.00,,,0.00,meteohub,2013-02-14 20:22:00,
2013-02-14 15:27:00,48.7,21.7,29.84,WSW,258,4.0,9.0,34,0.00,,,0.00,meteohub,2013-02-14 20:27:00,
2013-02-14 15:32:00,49.6,22.5,29.84,West,280,3.0,11.0,34,0.00,,,0.00,meteohub,2013-02-14 20:32:00,
2013-02-14 15:37:00,50.0,22.8,29.84,SSW,212,3.0,13.0,34,0.00,,,0.00,meteohub,2013-02-14 20:37:00,
2013-02-14 15:42:00,49.8,23.4,29.84,SW,235,2.0,13.0,35,0.00,,,0.00,meteohub,2013-02-14 20:42:00,
2013-02-14 15:47:00,49.6,21.7,29.84,NW,325,2.0,13.0,33,0.00,,,0.00,meteohub,2013-02-14 20:47:00,
2013-02-14 15:52:00,49.5,21.6,29.84,SSW,212,5.0,10.0,33,0.00,,,0.00,meteohub,2013-02-14 20:52:00,
2013-02-14 15:57:00,48.9,21.2,29.84,North,10,5.0,10.0,33,0.00,,,0.00,meteohub,2013-02-14 20:57:00,
2013-02-14 16:02:00,49.1,21.4,29.84,SSW,212,11.0,11.0,33,0.00,,,0.00,meteohub,2013-02-14 21:02:00,
2013-02-14 16:07:00,49.3,20.7,29.84,West,280,4.0,11.0,32,0.00,,,0.00,meteohub,2013-02-14 21:07:00,
2013-02-14 16:12:00,49.5,20.8,29.84,SSW,212,4.0,11.0,32,0.00,,,0.00,meteohub,2013-02-14 21:12:00,
2013-02-14 16:17:00,49.8,21.9,29.84,WNW,302,6.0,11.0,33,0.00,,,0.00,meteohub,2013-02-14 21:17:00,
2013-02-14 16:22:00,49.8,21.2,29.84,East,100,7.0,8.0,32,0.00,,,0.00,meteohub,2013-02-14 21:22:00,
2013-02-14 16:27:00,50.7,21.9,29.84,NW,325,5.0,8.0,32,0.00,,,0.00,meteohub,2013-02-14 21:27:00,
2013-02-14 16:32:00,48.9,19.8,29.84,North,10,9.0,11.0,31,0.00,,,0.00,meteohub,2013-02-14 21:32:00,
2013-02-14 16:37:00,48.4,19.2,29.84,NW,325,3.0,11.0,31,0.00,,,0.00,meteohub,2013-02-14 21:37:00,
2013-02-14 16:42:00,48.4,19.9,29.84,SSW,212,4.0,11.0,32,0.00,,,0.00,meteohub,2013-02-14 21:42:00,
2013-02-14 16:47:00,48.7,20.3,29.84,SSW,212,4.0,11.0,32,0.00,,,0.00,meteohub,2013-02-14 21:47:00,
2013-02-14 16:52:00,48.6,20.1,29.84,NNW,348,4.0,12.0,32,0.00,,,0.00,meteohub,2013-02-14 21:52:00,
2013-02-14 16:57:00,48.9,20.5,29.84,NNE,32,0.0,15.0,32,0.00,,,0.00,meteohub,2013-02-14 21:57:00,
2013-02-14 17:02:00,48.4,19.9,29.84,ESE,122,2.0,15.0,32,0.00,,,0.00,meteohub,2013-02-14 22:02:00,
2013-02-14 17:07:00,47.3,19.8,29.84,SE,145,7.0,9.0,33,0.00,,,0.00,meteohub,2013-02-14 22:07:00,
2013-02-14 17:12:00,46.2,18.7,29.84,SSW,212,9.0,9.0,33,0.00,,,0.00,meteohub,2013-02-14 22:12:00,
2013-02-14 17:17:00,45.1,17.8,29.84,South,190,5.0,11.0,33,0.00,,,0.00,meteohub,2013-02-14 22:17:00,
2013-02-14 17:22:00,44.8,17.4,29.84,SSE,168,7.0,11.0,33,0.00,,,0.00,meteohub,2013-02-14 22:22:00,
2013-02-14 17:27:00,44.4,17.8,29.84,SSW,212,7.0,11.0,34,0.00,,,0.00,meteohub,2013-02-14 22:27:00,
2013-02-14 17:32:00,43.3,16.9,29.84,SSE,168,0.0,12.0,34,0.00,,,0.00,meteohub,2013-02-14 22:32:00,
2013-02-14 17:37:00,41.9,16.3,29.84,SE,145,4.0,12.0,35,0.00,,,0.00,meteohub,2013-02-14 22:37:00,
2013-02-14 17:47:00,40.5,16.3,29.84,SE,145,4.0,7.0,37,0.00,,,0.00,meteohub,2013-02-14 22:47:00,
2013-02-14 17:52:00,39.4,16.0,29.84,SE,145,4.0,6.0,38,0.00,,,0.00,meteohub,2013-02-14 22:52:00,
2013-02-14 17:57:00,38.7,16.0,29.84,SE,145,3.0,6.0,39,0.00,,,0.00,meteohub,2013-02-14 22:57:00,
2013-02-14 18:02:00,38.1,15.4,29.84,SSE,168,4.0,6.0,39,0.00,,,0.00,meteohub,2013-02-14 23:02:00,
2013-02-14 18:07:00,37.4,15.3,29.84,SE,145,2.0,6.0,40,0.00,,,0.00,meteohub,2013-02-14 23:07:00,
2013-02-14 18:12:00,37.0,15.1,29.84,South,190,0.0,6.0,40,0.00,,,0.00,meteohub,2013-02-14 23:12:00,
2013-02-14 18:17:00,36.3,14.9,29.84,ESE,122,0.0,5.0,41,0.00,,,0.00,meteohub,2013-02-14 23:17:00,
2013-02-14 18:22:00,35.8,14.4,29.84,SE,145,3.0,4.0,41,0.00,,,0.00,meteohub,2013-02-14 23:22:00,
2013-02-14 18:27:00,35.6,14.9,29.87,SSE,168,3.0,4.0,42,0.00,,,0.00,meteohub,2013-02-14 23:27:00,
2013-02-14 18:32:00,35.1,14.9,29.87,ESE,122,0.0,3.0,43,0.00,,,0.00,meteohub,2013-02-14 23:32:00,
2013-02-14 18:37:00,34.7,14.5,29.87,ESE,122,0.0,3.0,43,0.00,,,0.00,meteohub,2013-02-14 23:37:00,
2013-02-14 18:42:00,34.5,14.9,29.87,ENE,78,0.0,3.0,44,0.00,,,0.00,meteohub,2013-02-14 23:42:00,
2013-02-14 18:47:00,34.0,14.4,29.87,SSE,168,0.0,3.0,44,0.00,,,0.00,meteohub,2013-02-14 23:47:00,
2013-02-14 18:52:00,33.6,14.5,29.87,ESE,122,2.0,4.0,45,0.00,,,0.00,meteohub,2013-02-14 23:52:00,
2013-02-14 18:57:00,33.3,14.7,29.87,ESE,122,3.0,4.0,46,0.00,,,0.00,meteohub,2013-02-14 23:57:00,
2013-02-14 19:02:00,33.1,15.6,29.87,SSW,212,0.0,4.0,48,0.00,,,0.00,meteohub,2013-02-15 00:02:00,
2013-02-14 19:07:00,32.5,16.0,29.87,SSW,212,0.0,4.0,50,0.00,,,0.00,meteohub,2013-02-15 00:07:00,
2013-02-14 19:12:00,32.2,15.6,29.87,South,190,0.0,4.0,50,0.00,,,0.00,meteohub,2013-02-15 00:12:00,
2013-02-14 19:17:00,31.8,15.8,29.87,SW,235,0.0,0.0,51,0.00,,,0.00,meteohub,2013-02-15 00:17:00,
2013-02-14 19:22:00,31.1,14.7,29.87,WNW,302,0.0,0.0,50,0.00,,,0.00,meteohub,2013-02-15 00:22:00,
2013-02-14 19:27:00,30.7,14.7,29.87,SE,145,0.0,0.0,51,0.00,,,0.00,meteohub,2013-02-15 00:27:00,
2013-02-14 19:32:00,30.7,14.7,29.87,ESE,122,3.0,4.0,51,0.00,,,0.00,meteohub,2013-02-15 00:32:00,
2013-02-14 19:37:00,30.9,15.4,29.87,North,10,3.0,4.0,52,0.00,,,0.00,meteohub,2013-02-15 00:37:00,
2013-02-14 19:42:00,30.6,15.4,29.87,NNE,32,0.0,4.0,53,0.00,,,0.00,meteohub,2013-02-15 00:42:00,
2013-02-14 19:47:00,30.0,14.9,29.87,ENE,78,3.0,3.0,53,0.00,,,0.00,meteohub,2013-02-15 00:47:00,
2013-02-14 19:52:00,29.8,14.9,29.87,ENE,78,0.0,3.0,53,0.00,,,0.00,meteohub,2013-02-15 00:52:00,
2013-02-14 20:02:00,29.3,15.1,29.87,NNW,348,0.0,3.0,55,0.00,,,0.00,meteohub,2013-02-15 01:02:00,
2013-02-14 20:07:00,28.6,14.5,29.87,NNW,348,0.0,2.0,55,0.00,,,0.00,meteohub,2013-02-15 01:07:00,
2013-02-14 20:12:00,28.4,15.1,29.87,WNW,302,0.0,0.0,57,0.00,,,0.00,meteohub,2013-02-15 01:12:00,
2013-02-14 20:17:00,28.2,14.9,29.87,WNW,302,0.0,0.0,57,0.00,,,0.00,meteohub,2013-02-15 01:17:00,
2013-02-14 20:22:00,28.2,15.4,29.87,WNW,302,0.0,0.0,58,0.00,,,0.00,meteohub,2013-02-15 01:22:00,
2013-02-14 20:27:00,27.9,15.1,29.87,NNW,348,5.0,0.0,58,0.00,,,0.00,meteohub,2013-02-15 01:27:00,
2013-02-14 20:32:00,27.5,15.1,29.87,NNW,348,0.0,5.0,59,0.00,,,0.00,meteohub,2013-02-15 01:32:00,
2013-02-14 20:37:00,27.1,15.1,29.87,NNW,348,0.0,5.0,60,0.00,,,0.00,meteohub,2013-02-15 01:37:00,
2013-02-14 20:42:00,27.0,14.5,29.87,ESE,122,0.0,5.0,59,0.00,,,0.00,meteohub,2013-02-15 01:42:00,
2013-02-14 20:47:00,26.8,14.7,29.87,WSW,258,0.0,0.0,60,0.00,,,0.00,meteohub,2013-02-15 01:47:00,
2013-02-14 20:52:00,26.6,14.5,29.87,South,190,0.0,0.0,60,0.00,,,0.00,meteohub,2013-02-15 01:52:00,
2013-02-14 20:57:00,26.6,14.5,29.84,SSE,168,0.0,0.0,60,0.00,,,0.00,meteohub,2013-02-15 01:57:00,
2013-02-14 21:02:00,26.8,14.7,29.84,WSW,258,0.0,0.0,60,0.00,,,0.00,meteohub,2013-02-15 02:02:00,
2013-02-14 21:07:00,26.4,14.9,29.84,WSW,258,0.0,0.0,61,0.00,,,0.00,meteohub,2013-02-15 02:07:00,
2013-02-14 21:12:00,26.2,15.1,29.87,West,280,0.0,0.0,62,0.00,,,0.00,meteohub,2013-02-15 02:12:00,
2013-02-14 21:17:00,26.1,14.9,29.87,West,280,0.0,0.0,62,0.00,,,0.00,meteohub,2013-02-15 02:17:00,
2013-02-14 21:22:00,26.1,15.6,29.87,South,190,0.0,0.0,64,0.00,,,0.00,meteohub,2013-02-15 02:22:00,
2013-02-14 21:27:00,26.1,16.0,29.87,SSW,212,0.0,0.0,65,0.00,,,0.00,meteohub,2013-02-15 02:27:00,
2013-02-14 21:37:00,25.5,15.4,29.87,ESE,122,0.0,0.0,65,0.00,,,0.00,meteohub,2013-02-15 02:37:00,
2013-02-14 21:42:00,25.5,15.8,29.87,South,190,0.0,0.0,66,0.00,,,0.00,meteohub,2013-02-15 02:42:00,
2013-02-14 21:47:00,25.3,15.3,29.87,SSE,168,0.0,0.0,65,0.00,,,0.00,meteohub,2013-02-15 02:47:00,
2013-02-14 21:52:00,25.3,15.6,29.87,SE,145,0.0,0.0,66,0.00,,,0.00,meteohub,2013-02-15 02:52:00,
2013-02-14 21:57:00,25.3,16.0,29.87,WSW,258,0.0,4.0,67,0.00,,,0.00,meteohub,2013-02-15 02:57:00,
2013-02-14 22:02:00,25.2,15.8,29.87,South,190,0.0,4.0,67,0.00,,,0.00,meteohub,2013-02-15 03:02:00,
2013-02-14 22:07:00,25.2,15.8,29.87,ESE,122,0.0,3.0,67,0.00,,,0.00,meteohub,2013-02-15 03:07:00,
2013-02-14 22:12:00,25.2,16.2,29.87,WSW,258,0.0,0.0,68,0.00,,,0.00,meteohub,2013-02-15 03:12:00,
2013-02-14 22:17:00,24.8,16.2,29.87,WSW,258,0.0,0.0,69,0.00,,,0.00,meteohub,2013-02-15 03:17:00,
2013-02-14 22:27:00,24.6,16.0,29.87,ENE,78,0.0,0.0,69,0.00,,,0.00,meteohub,2013-02-15 03:27:00,
2013-02-14 22:32:00,24.6,16.3,29.87,North,10,0.0,0.0,70,0.00,,,0.00,meteohub,2013-02-15 03:32:00,
2013-02-14 22:37:00,24.8,16.3,29.87,South,190,0.0,0.0,70,0.00,,,0.00,meteohub,2013-02-15 03:37:00,
2013-02-14 22:47:00,24.4,16.2,29.87,WSW,258,0.0,0.0,70,0.00,,,0.00,meteohub,2013-02-15 03:47:00,
2013-02-14 22:52:00,24.4,16.2,29.87,WSW,258,0.0,4.0,70,0.00,,,0.00,meteohub,2013-02-15 03:52:00,
2013-02-14 22:57:00,24.4,16.3,29.84,ESE,122,0.0,4.0,71,0.00,,,0.00,meteohub,2013-02-15 03:57:00,
2013-02-14 23:02:00,24.3,16.5,29.84,ESE,122,0.0,4.0,72,0.00,,,0.00,meteohub,2013-02-15 04:02:00,
2013-02-14 23:07:00,24.3,16.2,29.84,East,100,2.0,4.0,71,0.00,,,0.00,meteohub,2013-02-15 04:07:00,
2013-02-14 23:12:00,24.1,16.3,29.87,West,280,0.0,3.0,72,0.00,,,0.00,meteohub,2013-02-15 04:12:00,
2013-02-14 23:17:00,24.1,16.7,29.87,West,280,0.0,4.0,73,0.00,,,0.00,meteohub,2013-02-15 04:17:00,
2013-02-14 23:27:00,23.9,16.9,29.87,WSW,258,0.0,0.0,74,0.00,,,0.00,meteohub,2013-02-15 04:27:00,
2013-02-14 23:32:00,23.7,16.3,29.87,WSW,258,0.0,0.0,73,0.00,,,0.00,meteohub,2013-02-15 04:32:00,
2013-02-14 23:37:00,23.7,16.7,29.87,WSW,258,0.0,0.0,74,0.00,,,0.00,meteohub,2013-02-15 04:37:00,
2013-02-14 23:42:00,23.7,16.7,29.87,WSW,258,0.0,0.0,74,0.00,,,0.00,meteohub,2013-02-15 04:42:00,
2013-02-14 23:47:00,23.7,16.7,29.87,WSW,258,0.0,0.0,74,0.00,,,0.00,meteohub,2013-02-15 04:47:00,
2013-02-14 23:52:00,23.5,16.9,29.87,WSW,258,0.0,0.0,75,0.00,,,0.00,meteohub,2013-02-15 04:52:00,